Weather in Mokino

Russia / Kirov Oblast     57°26′18″N   49°11′23″E
temp.,
°C
wind,
m/s
gust,
m/s
humid.,
%
clouds,
%
prec.,
mm/h
press.,
hPa
HPBL,
m
27 july, tue
tue2700:00+14wsw4116693 0.0 1015228
03:00+14w41175100 0.0 1015258
06:00+14nw4885100 0.0 1016403
09:00+18nw57555 0.0 10161269
12:00+20nw574311 0.0 10162068
15:00+21nw673914 0.0 10152210
18:00+17n36554 0.0 1016816
21:00+12nnw22712 0.0 101612
28 july, wed
wed2800:00+10n11720 0.0 101711
03:00+9wnw22741 0.0 101711
06:00+12w36675 0.0 1017188
09:00+17wnw57525 0.0 10161022
12:00+21wnw57399 0.0 10152228
15:00+22wnw57368 0.0 10142368
18:00+20wnw35504 0.0 1013172
21:00+14sw22630 0.0 101212
29 july, thu
thu2900:00+13sw346672 0.0 101142
03:00+15sw3754100 0.0 1010174
06:00+16sw376697 0.0 1009184
09:00+22wsw2351100 0.0 1007439
12:00+21sw6765100 0.0 10071092
15:00+18ssw4578100 0.1 1005580
18:00+17sw248793 0.1 1004535
21:00+16sw009496 0.2 100416
30 july, fri
fri3000:00+15w2395100 0.1 100481
03:00+13wsw259832 0.1 100499
06:00+16wsw489117 0.0 1004280
09:00+22w796528 0.0 1003957
12:00+26w794776 0.0 10032140
15:00+24w4955100 0.0 1004498
18:00+24wnw48505 0.0 1004273
21:00+19w33664 0.0 100526
31 july, sat
sat3100:00+17wsw227239 0.0 100613
03:00+17wsw2271100 0.0 100611
06:00+19ssw2573100 0.0 1006144
09:00+24sw4761100 0.1 1006576
12:00+27sw6850100 0.0 10051607
15:00+20w378775 2.3 1005267
18:00+23wsw36770 1.3 1005275
21:00+18sw22874 2.6 100522